{"data":{"norad_id":64250,"epoch":"2026-09-20T01:37:39.303264Z","epoch_age_seconds":175039,"freshness":"STALE","line1":"1 64250U 25119T   26263.06781601  .00013407  00000+0  49571-3 0  9996","line2":"2 64250  43.0032 289.5927 0001340 265.9007  94.1691 15.27589163 73894","mean_motion":15.27589163,"eccentricity":0.000134,"inclination_deg":43.0032,"raan_deg":289.5927,"arg_perigee_deg":265.9007,"mean_anomaly_deg":94.1691,"bstar":0.00049571,"rev_number":7389,"period_min":94.266183269592,"perigee_km":482.10226359814,"apogee_km":483.94105411872,"semimajor_km":6861.1586588584,"source":"CELESTRAK","updated_at":"2026-09-21T09:00:35.279869Z"}}